Външен сензор Measurements

Back to Overview

Timestamp Temperature Humidity
6/15/2019 4:41:10 PM 13.7 C 78.6%
6/15/2019 4:34:08 PM 13.7 C 78.8%
6/15/2019 4:27:08 PM 13.7 C 78.3%
6/15/2019 4:20:05 PM 13.8 C 78.2%
6/15/2019 4:13:04 PM 14.0 C 77.5%
6/15/2019 4:06:02 PM 14.0 C 76.6%
6/15/2019 3:58:59 PM 14.1 C 76.4%
6/15/2019 3:51:58 PM 14.0 C 76.5%
6/15/2019 3:44:57 PM 14.0 C 76.3%
6/15/2019 3:37:54 PM 14.0 C 76.2%
6/15/2019 3:30:52 PM 14.0 C 75.7%
6/15/2019 3:23:50 PM 14.1 C 75.4%
6/15/2019 3:16:48 PM 14.1 C 75.2%
6/15/2019 3:09:45 PM 14.1 C 75.4%
6/15/2019 3:02:45 PM 14.2 C 73.9%
6/15/2019 2:55:42 PM 14.2 C 73.6%
6/15/2019 2:48:39 PM 14.3 C 72.8%
6/15/2019 2:41:37 PM 14.3 C 72.6%
6/15/2019 2:34:35 PM 14.5 C 73.0%
6/15/2019 2:27:35 PM 14.6 C 71.9%
6/15/2019 2:20:32 PM 14.6 C 71.4%
6/15/2019 2:13:30 PM 14.6 C 71.6%
6/15/2019 2:06:29 PM 14.6 C 71.9%
6/15/2019 1:59:26 PM 14.8 C 71.2%
6/15/2019 1:52:24 PM 14.9 C 71.6%
6/15/2019 1:45:22 PM 14.9 C 70.9%
6/15/2019 1:38:19 PM 14.9 C 70.7%
6/15/2019 1:31:18 PM 15.1 C 69.4%
6/15/2019 1:24:16 PM 15.0 C 69.7%
6/15/2019 1:17:13 PM 15.0 C 69.3%
6/15/2019 1:10:12 PM 15.0 C 68.3%
6/15/2019 1:03:10 PM 15.0 C 68.2%
6/15/2019 12:56:08 PM 15.0 C 67.3%
6/15/2019 12:49:06 PM 15.0 C 67.4%
6/15/2019 12:42:05 PM 15.1 C 67.6%
6/15/2019 12:35:02 PM 15.1 C 66.6%
6/15/2019 12:28:02 PM 15.1 C 66.6%
6/15/2019 12:20:58 PM 15.2 C 65.2%
6/15/2019 12:13:57 PM 15.2 C 65.4%
6/15/2019 12:06:55 PM 15.4 C 65.7%
6/15/2019 11:59:52 AM 15.5 C 63.7%
6/15/2019 11:52:51 AM 15.7 C 64.1%
6/15/2019 11:45:50 AM 15.8 C 62.0%
6/15/2019 11:38:46 AM 15.9 C 61.5%
6/15/2019 11:31:46 AM 16.1 C 60.8%
6/15/2019 11:24:45 AM 16.2 C 60.9%
6/15/2019 11:17:43 AM 16.2 C 61.1%
6/15/2019 11:10:41 AM 16.2 C 60.8%
6/15/2019 11:03:39 AM 16.4 C 59.6%
6/15/2019 10:56:37 AM 16.6 C 58.2%
6/15/2019 10:49:35 AM 16.7 C 58.6%
6/15/2019 10:42:34 AM 16.9 C 58.2%
6/15/2019 10:35:32 AM 17.1 C 57.3%
6/15/2019 10:28:31 AM 17.4 C 56.6%
6/15/2019 10:21:27 AM 17.6 C 56.2%
6/15/2019 10:14:27 AM 17.8 C 55.9%
6/15/2019 10:07:25 AM 18.0 C 55.6%
6/15/2019 10:00:23 AM 18.2 C 54.5%
6/15/2019 9:53:21 AM 18.4 C 54.7%
6/15/2019 9:46:18 AM 18.6 C 53.0%
6/15/2019 9:39:17 AM 18.8 C 53.8%
6/15/2019 9:32:15 AM 19.0 C 53.5%
6/15/2019 9:25:13 AM 19.3 C 53.5%
6/15/2019 9:18:12 AM 19.5 C 53.9%
6/15/2019 9:11:10 AM 19.6 C 53.0%
6/15/2019 9:04:08 AM 19.7 C 53.0%
6/15/2019 8:57:07 AM 19.9 C 52.4%
6/15/2019 8:50:07 AM 20.2 C 52.4%
6/15/2019 8:43:03 AM 20.7 C 50.8%
6/15/2019 8:37:16 AM 20.8 C 47.6%
6/15/2019 8:36:45 AM 20.8 C 51.2%
6/15/2019 8:29:44 AM 20.8 C 48.8%
6/15/2019 8:22:41 AM 21.0 C 51.1%
6/15/2019 8:15:39 AM 21.0 C 48.9%
6/15/2019 8:08:38 AM 21.1 C 48.9%
6/15/2019 8:06:51 AM 21.1 C 45.8%
6/15/2019 8:04:51 AM 21.1 C 45.8%
6/15/2019 7:57:48 AM 21.3 C 50.3%
6/15/2019 7:55:17 AM 21.3 C 47.2%
6/15/2019 7:48:16 AM 21.4 C 47.4%
6/15/2019 7:41:14 AM 21.4 C 46.5%
6/15/2019 7:39:13 AM 21.4 C 49.7%
6/15/2019 7:37:57 AM 21.4 C 46.0%
6/15/2019 7:35:24 AM 21.4 C 49.2%
6/15/2019 7:28:22 AM 21.7 C 48.0%
6/15/2019 7:24:22 AM 21.9 C 44.8%
6/15/2019 7:18:36 AM 21.9 C 48.0%
6/15/2019 7:11:34 AM 21.8 C 47.8%
6/15/2019 7:07:48 AM 21.9 C 51.9%
6/15/2019 7:00:46 AM 21.9 C 50.9%
6/15/2019 6:53:44 AM 21.9 C 50.1%
6/15/2019 6:49:27 AM 21.5 C 53.5%
6/15/2019 6:42:26 AM 22.0 C 54.9%
6/15/2019 6:36:09 AM 22.5 C 51.6%
6/15/2019 6:29:51 AM 23.2 C 50.9%
6/15/2019 6:26:03 AM 23.9 C 47.9%
6/15/2019 6:21:03 AM 24.6 C 48.6%
6/15/2019 6:14:01 AM 25.2 C 45.4%
6/15/2019 6:11:44 AM 25.9 C 43.6%
6/15/2019 6:09:44 AM 26.6 C 42.9%
6/15/2019 6:08:13 AM 27.2 C 39.4%
6/15/2019 6:06:41 AM 27.8 C 39.4%
6/15/2019 6:04:40 AM 28.5 C 41.4%
6/15/2019 6:01:23 AM 29.3 C 39.4%
6/15/2019 5:59:22 AM 29.6 C 35.8%
6/15/2019 5:56:51 AM 29.7 C 39.3%
6/15/2019 5:54:05 AM 29.8 C 35.7%
6/15/2019 5:52:03 AM 29.8 C 39.6%
6/15/2019 5:45:02 AM 29.9 C 37.3%
6/15/2019 5:37:59 AM 30.0 C 37.2%
6/15/2019 5:34:41 AM 29.7 C 41.7%
6/15/2019 5:29:10 AM 29.3 C 38.4%
6/15/2019 5:28:41 AM 29.3 C 35.2%
6/15/2019 5:26:39 AM 29.3 C 38.9%
6/15/2019 5:22:38 AM 29.5 C 35.7%
6/15/2019 5:21:52 AM 29.5 C 42.3%
6/15/2019 5:16:05 AM 28.8 C 41.0%
6/15/2019 5:14:49 AM 28.7 C 44.3%
6/15/2019 5:13:33 AM 28.8 C 40.8%
6/15/2019 5:12:56 AM 28.8 C 35.5%
6/15/2019 5:11:45 AM 28.7 C 42.8%
6/15/2019 5:11:00 AM 28.7 C 39.7%
6/15/2019 5:09:14 AM 28.6 C 43.7%
6/15/2019 5:08:13 AM 28.7 C 40.2%
6/15/2019 5:06:25 AM 28.5 C 43.8%
6/15/2019 5:03:55 AM 28.5 C 39.3%
6/15/2019 5:03:39 AM 28.5 C 43.1%
6/15/2019 5:02:08 AM 28.5 C 39.3%
6/15/2019 5:01:07 AM 28.6 C 35.9%
6/15/2019 5:00:35 AM 28.6 C 43.8%
6/15/2019 4:59:04 AM 28.6 C 39.6%
6/15/2019 4:58:03 AM 28.8 C 34.8%
6/15/2019 4:56:16 AM 28.9 C 38.6%
6/15/2019 4:56:01 AM 29.0 C 41.9%
6/15/2019 4:52:29 AM 29.3 C 37.3%
6/15/2019 4:48:42 AM 29.0 C 42.0%
6/15/2019 4:45:41 AM 29.1 C 37.3%
6/15/2019 4:44:24 AM 29.1 C 44.7%
6/15/2019 4:40:39 AM 29.0 C 41.1%
6/15/2019 4:40:08 AM 29.0 C 46.6%
6/15/2019 4:39:21 AM 28.9 C 42.7%
6/15/2019 4:38:51 AM 28.8 C 46.6%
6/15/2019 4:34:04 AM 28.6 C 43.4%
6/15/2019 4:32:18 AM 28.9 C 38.3%
6/15/2019 4:32:02 AM 29.0 C 44.1%
6/15/2019 4:30:31 AM 28.9 C 40.6%
6/15/2019 4:28:00 AM 28.6 C 44.0%
6/15/2019 4:26:58 AM 28.5 C 39.7%
6/15/2019 4:26:27 AM 28.4 C 44.0%
6/15/2019 4:23:41 AM 27.8 C 47.7%
6/15/2019 4:22:09 AM 27.5 C 44.3%
6/15/2019 4:21:09 AM 27.5 C 39.1%
6/15/2019 4:20:53 AM 27.4 C 43.3%
6/15/2019 4:20:22 AM 27.3 C 46.7%
6/15/2019 4:17:50 AM 26.6 C 48.1%
6/15/2019 4:16:04 AM 26.3 C 44.8%
6/15/2019 4:14:48 AM 25.8 C 48.3%
6/15/2019 4:12:46 AM 25.1 C 50.6%
6/15/2019 4:10:16 AM 24.5 C 47.1%
6/15/2019 4:09:44 AM 24.3 C 50.2%
6/15/2019 4:09:28 AM 24.3 C 54.2%
6/15/2019 4:05:12 AM 24.3 C 51.1%
6/15/2019 3:58:10 AM 24.9 C 48.6%
6/15/2019 3:53:24 AM 25.6 C 48.3%
6/15/2019 3:50:23 AM 25.2 C 51.5%
6/15/2019 3:48:21 AM 24.4 C 52.7%
6/15/2019 3:46:18 AM 23.7 C 49.6%
6/15/2019 3:45:34 AM 23.5 C 53.0%
6/15/2019 3:38:31 AM 23.7 C 51.6%
6/15/2019 3:35:45 AM 24.4 C 49.3%
6/15/2019 3:33:44 AM 25.1 C 46.9%
6/15/2019 3:32:13 AM 25.8 C 44.2%
6/15/2019 3:31:56 AM 26.0 C 47.9%
6/15/2019 3:29:54 AM 26.7 C 45.8%
6/15/2019 3:27:10 AM 27.3 C 44.7%
6/15/2019 3:24:23 AM 27.1 C 41.0%
6/15/2019 3:22:52 AM 27.0 C 44.1%
6/15/2019 3:20:20 AM 26.5 C 47.4%
6/15/2019 3:18:34 AM 25.9 C 52.9%
6/15/2019 3:16:18 AM 25.2 C 50.1%
6/15/2019 3:15:17 AM 25.0 C 53.4%
6/15/2019 3:13:16 AM 24.3 C 50.4%
6/15/2019 3:12:15 AM 24.2 C 47.3%
6/15/2019 3:11:43 AM 24.1 C 52.4%
6/15/2019 3:11:13 AM 24.0 C 48.3%
6/15/2019 3:08:57 AM 23.2 C 49.2%
6/15/2019 3:06:10 AM 23.1 C 52.8%
6/15/2019 3:03:55 AM 23.3 C 49.7%
6/15/2019 3:03:08 AM 23.4 C 53.9%
6/15/2019 3:01:37 AM 23.5 C 50.4%
6/15/2019 3:00:50 AM 23.6 C 47.1%
6/15/2019 2:59:35 AM 23.5 C 50.5%
6/15/2019 2:57:33 AM 23.1 C 53.8%
6/15/2019 2:56:03 AM 22.3 C 56.2%
6/15/2019 2:53:59 AM 21.7 C 54.1%
6/15/2019 2:52:00 AM 21.1 C 58.3%
6/15/2019 2:49:59 AM 20.5 C 59.6%
6/15/2019 2:43:42 AM 19.7 C 56.9%
6/15/2019 2:36:40 AM 20.1 C 56.5%
6/15/2019 2:29:38 AM 20.7 C 55.2%
6/15/2019 2:27:22 AM 20.9 C 51.8%
6/15/2019 2:20:21 AM 21.4 C 52.6%
6/15/2019 2:18:35 AM 21.7 C 48.9%
6/15/2019 2:11:33 AM 22.3 C 53.5%
6/15/2019 2:04:30 AM 22.7 C 50.3%
6/15/2019 2:00:14 AM 23.4 C 49.3%
6/15/2019 1:58:27 AM 23.7 C 45.9%
6/15/2019 1:55:56 AM 23.4 C 49.8%
6/15/2019 1:55:25 AM 23.4 C 52.9%
6/15/2019 1:54:24 AM 23.4 C 49.3%
6/15/2019 1:53:38 AM 23.5 C 45.2%
6/15/2019 1:50:37 AM 23.8 C 49.4%
6/15/2019 1:48:05 AM 24.5 C 48.2%
6/15/2019 1:46:34 AM 25.1 C 44.1%
6/15/2019 1:46:03 AM 25.2 C 49.9%
6/15/2019 1:39:46 AM 25.9 C 50.2%
6/15/2019 1:39:15 AM 26.0 C 46.6%
6/15/2019 1:38:29 AM 25.9 C 50.9%
6/15/2019 1:36:43 AM 26.0 C 47.4%
6/15/2019 1:35:42 AM 26.3 C 43.5%
6/15/2019 1:31:26 AM 25.9 C 48.3%
6/15/2019 1:30:39 AM 25.9 C 43.8%
6/15/2019 1:29:08 AM 25.8 C 48.1%
6/15/2019 1:26:20 AM 25.8 C 44.7%
6/15/2019 1:24:21 AM 25.6 C 48.9%
6/15/2019 1:23:50 AM 25.6 C 45.0%
6/15/2019 1:21:48 AM 25.3 C 49.8%
6/15/2019 1:21:17 AM 25.3 C 45.4%
6/15/2019 1:20:46 AM 25.2 C 49.2%
6/15/2019 1:13:44 AM 25.0 C 48.1%
6/15/2019 1:12:43 AM 25.0 C 51.3%
6/15/2019 1:09:12 AM 25.2 C 47.6%
6/15/2019 1:07:10 AM 25.0 C 51.3%
6/15/2019 1:06:25 AM 24.9 C 54.5%
6/15/2019 1:05:53 AM 24.9 C 49.0%
6/15/2019 1:05:21 AM 24.9 C 45.4%
6/15/2019 1:04:36 AM 24.9 C 49.5%
6/15/2019 1:01:18 AM 24.6 C 53.9%
6/15/2019 12:58:57 AM 24.5 C 50.8%
6/15/2019 12:58:48 AM 24.5 C 47.7%
6/15/2019 12:57:16 AM 24.4 C 52.1%
6/15/2019 12:56:30 AM 24.3 C 55.3%
6/15/2019 12:55:29 AM 24.1 C 51.2%
6/15/2019 12:51:12 AM 23.7 C 54.6%
6/15/2019 12:48:26 AM 23.8 C 51.0%
6/15/2019 12:46:55 AM 23.7 C 54.6%
6/15/2019 12:45:54 AM 23.6 C 49.7%
6/15/2019 12:43:53 AM 23.4 C 52.9%
6/15/2019 12:42:06 AM 23.4 C 49.7%
6/15/2019 12:38:50 AM 23.1 C 53.6%
6/15/2019 12:31:48 AM 22.6 C 54.2%
6/15/2019 12:31:17 AM 22.6 C 50.6%
6/15/2019 12:28:16 AM 22.5 C 54.2%
6/15/2019 12:27:30 AM 22.5 C 57.4%
6/15/2019 12:22:58 AM 22.2 C 54.2%
6/15/2019 12:22:27 AM 22.2 C 59.6%
6/15/2019 12:20:26 AM 22.0 C 56.3%
6/15/2019 12:19:24 AM 21.9 C 61.2%
6/15/2019 12:16:08 AM 21.7 C 57.9%
6/15/2019 12:15:06 AM 21.7 C 54.0%
6/15/2019 12:13:05 AM 21.6 C 57.6%
6/15/2019 12:12:04 AM 21.6 C 61.4%
6/15/2019 12:11:18 AM 21.5 C 57.9%
6/15/2019 12:10:02 AM 21.5 C 54.4%
6/15/2019 12:07:14 AM 21.3 C 58.4%
6/15/2019 12:06:28 AM 21.2 C 62.1%